Home > Weather > Churchill > Past weeks

Flag for Canada Past Weather in Churchill, Manitoba, Canada — Yesterday and Last 2 Weeks

Now
36 °F

Mostly cloudy.


Feels Like: 26 °F
Forecast: 34 / 47 °F
Wind: 15 mph from Southeast

Location: Churchill

Current Time: May 24, 2016 at 8:32:13 PM

Latest Report: May 24, 2016 at 8:00 PM


Visibility: 15 mi

Pressure: 30.15 "Hg

Humidity: 65%

Dew Point: 25 °F

Location of ChurchillLocation

Past Weather in Churchill — Graph

°F

Churchill Temperature Yesterday

Maximum temperature yesterday: 36 °F (at 8:00 AM)
Minimum temperature yesterday: 28 °F (at 3:00 AM)
Average temperature yesterday: 31 °F

High & Low Weather Summary for the Past Weeks

 TemperatureHumidityPressure
High55 °F (May 9, 7:00 PM)100% (May 11, 4:00 AM)30.37 "Hg (May 11, 4:00 AM)
Low19 °F (May 13, 8:00 AM)46% (May 16, 2:00 PM)29.51 "Hg (May 22, 5:00 AM)
Average31 °F84%30.06 "Hg
* Reported May 9 7:00 PM — May 24 7:00 PM, Churchill, Weather by CustomWeather, © 2016

Note: Actual official high and low records may vary slightly from our data, if they occured in-between our weather recording intervals... More about our weather records

Advertising

Churchill Weather History for the Previous 24 Hours

Scroll right to see more
 ConditionsComfort  
Time TempWeatherWind HumidityBarometerVisibility
7:00 PM
Tue, May 24
36 °FBroken clouds.14 mph65%30.15 "Hg15 mi
6:00 PM36 °FPartly sunny.9 mph60%30.16 "Hg15 mi
5:00 PM36 °FPartly sunny.10 mph60%30.18 "Hg15 mi
4:00 PM36 °FPartly sunny.9 mph60%30.17 "Hg15 mi
3:00 PM36 °FPartly sunny.9 mph60%30.18 "Hg15 mi
2:00 PM34 °FPartly sunny.8 mph60%30.19 "Hg15 mi
1:00 PM34 °FOvercast.8 mph60%30.19 "Hg15 mi
12:00 PM32 °FOvercast.9 mph64%30.19 "Hg15 mi
11:00 AM32 °FOvercast.9 mph69%30.19 "Hg15 mi
10:00 AM32 °FOvercast.10 mph69%30.18 "Hg15 mi
9:00 AM30 °FOvercast.12 mph75%30.18 "Hg15 mi
8:00 AM30 °FOvercast.7 mph75%30.16 "Hg15 mi
7:00 AM30 °FOvercast.8 mph75%30.15 "Hg15 mi
6:00 AM30 °FOvercast.7 mph86%30.14 "Hg15 mi
5:00 AM30 °FOvercast.7 mph86%30.11 "Hg15 mi
4:00 AM30 °FPassing clouds.6 mph80%30.09 "Hg15 mi
3:00 AM30 °FPassing clouds.6 mph80%30.08 "Hg15 mi
2:00 AM28 °FPassing clouds.7 mph86%30.06 "Hg15 mi
1:00 AM27 °FPassing clouds.7 mph86%30.06 "Hg15 mi
12:00 AM28 °FPassing clouds.7 mph80%30.04 "Hg15 mi
11:00 PM
Mon, May 23
30 °FPassing clouds.12 mph80%30.03 "Hg15 mi
10:00 PM28 °FPartly sunny.8 mph86%30.02 "Hg15 mi
9:00 PM28 °FPartly sunny.10 mph80%30.00 "Hg15 mi
8:00 PM28 °FLow clouds.15 mph80%29.99 "Hg15 mi
Weather by CustomWeather, © 2016

See weather overviewHow to use our weather pages